• In Norway
  • List of Countries
  • For 7 days
  • Water Temperature
  • Satellite Maps
  • Weather Map
  • Weather Widgets
  • user-avatar
    Login

    Hourly Weather Newcastle

    Today, 14 November, Wednesday

    Time Temperature Precipitation Wind Pressure Humidity
    00:00 +17°C° 0 mm 6 mps 761 mmHg 84%
    01:00 +17°C° 0 mm 5 mps 761 mmHg 87%
    02:00 +17°C° 0 mm 5 mps 760 mmHg 88%
    03:00 +16°C° 0 mm 5 mps 760 mmHg 89%
    04:00 +16°C° 0 mm 5 mps 760 mmHg 89%
    05:00 +19°C° 0 mm 4 mps 760 mmHg 84%
    06:00 +20°C° 0 mm 4 mps 761 mmHg 79%
    07:00 +21°C° 0 mm 3 mps 761 mmHg 75%
    08:00 +22°C° 0 mm 3 mps 761 mmHg 68%
    09:00 +25°C° 0 mm 3 mps 761 mmHg 62%
    10:00 +26°C° 0 mm 3 mps 762 mmHg 56%
    11:00 +28°C° 0 mm 2 mps 761 mmHg 52%
    12:00 +29°C° 0 mm 2 mps 761 mmHg 47%
    13:00 +30°C° 0 mm 1 mps 761 mmHg 43%
    14:00 +30°C° 0 mm 2 mps 760 mmHg 45%
    15:00 +29°C° 0 mm 3 mps 760 mmHg 47%
    16:00 +27°C° 0 mm 4 mps 760 mmHg 54%
    17:00 +26°C° 0.1 mm 4 mps 760 mmHg 62%
    18:00 +23°C° 0.1 mm 4 mps 761 mmHg 70%
    19:00 +22°C° 0.1 mm 4 mps 761 mmHg 78%
    20:00 +21°C° 0.3 mm 3 mps 761 mmHg 80%
    21:00 +21°C° 0.3 mm 3 mps 761 mmHg 82%
    22:00 +20°C° 0 mm 3 mps 761 mmHg 88%
    23:00 +19°C° 0.3 mm 3 mps 761 mmHg 89%

    Tomorrow, 15 November, Thursday

    Time Temperature Precipitation Wind Pressure Humidity
    00:00 +19°C° 0.3 mm 3 mps 761 mmHg 90%
    01:00 +19°C° 0.3 mm 3 mps 761 mmHg 91%
    02:00 +18°C° 0.1 mm 3 mps 761 mmHg 92%
    03:00 +18°C° 0.1 mm 3 mps 761 mmHg 93%
    04:00 +18°C° 0.1 mm 2 mps 761 mmHg 94%
    05:00 +19°C° 0 mm 3 mps 761 mmHg 89%
    06:00 +20°C° 0 mm 3 mps 761 mmHg 83%
    07:00 +22°C° 0 mm 3 mps 762 mmHg 78%
    08:00 +25°C° 0 mm 4 mps 762 mmHg 70%
    09:00 +27°C° 0 mm 5 mps 762 mmHg 62%
    10:00 +28°C° 0 mm 5 mps 762 mmHg 54%
    11:00 +28°C° 0.1 mm 5 mps 762 mmHg 57%
    12:00 +27°C° 0.1 mm 6 mps 762 mmHg 61%
    13:00 +27°C° 0.1 mm 6 mps 762 mmHg 64%
    14:00 +24°C° 0.1 mm 6 mps 762 mmHg 68%
    15:00 +23°C° 0.1 mm 6 mps 762 mmHg 72%
    16:00 +22°C° 0.1 mm 6 mps 762 mmHg 76%
    17:00 +21°C° 0.1 mm 6 mps 763 mmHg 81%
    18:00 +20°C° 0.1 mm 5 mps 763 mmHg 86%
    19:00 +19°C° 0.1 mm 5 mps 764 mmHg 90%
    20:00 +19°C° 0.2 mm 5 mps 764 mmHg 91%
    21:00 +19°C° 0.2 mm 4 mps 765 mmHg 92%
    22:00 +19°C° 0.2 mm 4 mps 765 mmHg 92%
    23:00 +18°C° 0.2 mm 4 mps 765 mmHg 93%

    Day after tomorrow, 16 November, Friday

    Time Temperature Precipitation Wind Pressure Humidity
    00:00 +18°C° 0.2 mm 4 mps 765 mmHg 93%
    01:00 +18°C° 0.2 mm 4 mps 764 mmHg 94%
    02:00 +18°C° 0.2 mm 4 mps 764 mmHg 94%
    03:00 +17°C° 0.2 mm 4 mps 764 mmHg 95%
    04:00 +17°C° 0.2 mm 4 mps 764 mmHg 95%
    05:00 +17°C° 0 mm 4 mps 764 mmHg 93%
    06:00 +18°C° 0 mm 3 mps 764 mmHg 91%
    07:00 +18°C° 0 mm 3 mps 765 mmHg 88%
    08:00 +19°C° 0 mm 3 mps 764 mmHg 81%
    09:00 +21°C° 0 mm 3 mps 764 mmHg 74%
    10:00 +22°C° 0 mm 3 mps 764 mmHg 67%
    11:00 +22°C° 0 mm 3 mps 764 mmHg 66%
    12:00 +22°C° 0 mm 3 mps 763 mmHg 66%
    13:00 +22°C° 0 mm 3 mps 763 mmHg 65%
    14:00 +22°C° 0 mm 3 mps 762 mmHg 64%
    15:00 +22°C° 0 mm 3 mps 762 mmHg 64%
    16:00 +22°C° 0 mm 3 mps 762 mmHg 63%
    17:00 +21°C° 0 mm 3 mps 762 mmHg 70%
    18:00 +19°C° 0 mm 3 mps 762 mmHg 76%
    19:00 +18°C° 0 mm 2 mps 763 mmHg 82%
    20:00 +17°C° 0 mm 2 mps 763 mmHg 86%
    21:00 +16°C° 0 mm 2 mps 763 mmHg 89%
    22:00 +16°C° 0 mm 2 mps 763 mmHg 92%
    23:00 +15°C° 0 mm 1 mps 763 mmHg 93%

    17 November, Saturday

    Time Temperature Precipitation Wind Pressure Humidity
    00:00 +15°C° 0 mm 1 mps 763 mmHg 94%
    01:00 +15°C° 0 mm 1 mps 762 mmHg 95%
    02:00 +15°C° 0 mm 1 mps 762 mmHg 96%
    03:00 +15°C° 0 mm 1 mps 762 mmHg 96%
    04:00 +14°C° 0 mm 1 mps 762 mmHg 97%
    05:00 +16°C° 0 mm 1 mps 762 mmHg 89%
    06:00 +18°C° 0 mm 2 mps 762 mmHg 82%
    07:00 +20°C° 0 mm 2 mps 763 mmHg 74%
    08:00 +20°C° 0 mm 2 mps 763 mmHg 70%
    09:00 +21°C° 0 mm 3 mps 763 mmHg 66%
    10:00 +22°C° 0 mm 3 mps 763 mmHg 62%
    11:00 +22°C° 0 mm 4 mps 763 mmHg 59%
    12:00 +23°C° 0 mm 4 mps 763 mmHg 57%
    13:00 +23°C° 0 mm 5 mps 763 mmHg 54%
    14:00 +23°C° 0 mm 5 mps 763 mmHg 57%
    15:00 +22°C° 0 mm 5 mps 763 mmHg 59%
    16:00 +22°C° 0 mm 5 mps 763 mmHg 62%
    17:00 +20°C° 0.1 mm 5 mps 764 mmHg 68%
    18:00 +19°C° 0.1 mm 5 mps 765 mmHg 75%
    19:00 +16°C° 0.1 mm 5 mps 765 mmHg 82%
    20:00 +16°C° 0.1 mm 5 mps 766 mmHg 84%
    21:00 +16°C° 0.1 mm 5 mps 766 mmHg 86%
    22:00 +15°C° 0.1 mm 5 mps 766 mmHg 88%
    23:00 +15°C° 0.1 mm 5 mps 766 mmHg 89%

    18 November, Sunday

    Time Temperature Precipitation Wind Pressure Humidity
    00:00 +14°C° 0.1 mm 5 mps 766 mmHg 90%
    01:00 +14°C° 0.1 mm 4 mps 765 mmHg 91%
    02:00 +14°C° 0 mm 4 mps 765 mmHg 90%
    03:00 +13°C° 0 mm 4 mps 766 mmHg 89%
    04:00 +13°C° 0 mm 4 mps 766 mmHg 88%
    05:00 +14°C° 0.1 mm 4 mps 766 mmHg 84%
    06:00 +15°C° 0.1 mm 4 mps 766 mmHg 79%
    07:00 +18°C° 0.1 mm 4 mps 766 mmHg 75%
    08:00 +18°C° 0.1 mm 4 mps 767 mmHg 69%
    09:00 +19°C° 0.1 mm 4 mps 767 mmHg 64%
    10:00 +20°C° 0.1 mm 4 mps 767 mmHg 58%
    11:00 +20°C° 0.1 mm 4 mps 767 mmHg 57%
    12:00 +20°C° 0.1 mm 4 mps 766 mmHg 55%
    13:00 +21°C° 0.1 mm 4 mps 766 mmHg 53%
    14:00 +21°C° 0.1 mm 4 mps 766 mmHg 54%
    15:00 +21°C° 0.1 mm 5 mps 766 mmHg 54%
    16:00 +21°C° 0.1 mm 5 mps 766 mmHg 54%
    17:00 +19°C° 0.1 mm 4 mps 766 mmHg 62%
    18:00 +18°C° 0.1 mm 4 mps 766 mmHg 70%
    19:00 +16°C° 0.1 mm 3 mps 767 mmHg 78%
    20:00 +14°C° 0 mm 3 mps 767 mmHg 82%
    21:00 +14°C° 0 mm 3 mps 767 mmHg 85%
    22:00 +14°C° 0 mm 2 mps 768 mmHg 88%
    23:00 +14°C° 0 mm 2 mps 767 mmHg 88%

    19 November, Monday

    Time Temperature Precipitation Wind Pressure Humidity
    00:00 +14°C° 0 mm 2 mps 767 mmHg 89%
    01:00 +13°C° 0 mm 2 mps 766 mmHg 89%
    02:00 +14°C° 0 mm 2 mps 766 mmHg 87%
    03:00 +14°C° 0 mm 2 mps 766 mmHg 85%
    04:00 +14°C° 0 mm 1 mps 766 mmHg 84%
    05:00 +16°C° 0 mm 2 mps 766 mmHg 77%
    06:00 +18°C° 0 mm 2 mps 766 mmHg 71%
    07:00 +19°C° 0 mm 2 mps 767 mmHg 65%
    08:00 +20°C° 0 mm 2 mps 766 mmHg 60%
    09:00 +21°C° 0 mm 3 mps 766 mmHg 55%
    10:00 +22°C° 0 mm 3 mps 766 mmHg 51%
    11:00 +24°C° 0 mm 3 mps 765 mmHg 49%
    12:00 +24°C° 0 mm 3 mps 765 mmHg 47%
    13:00 +25°C° 0 mm 3 mps 764 mmHg 46%
    14:00 +25°C° 0 mm 3 mps 764 mmHg 47%
    15:00 +24°C° 0 mm 3 mps 763 mmHg 47%
    16:00 +24°C° 0 mm 3 mps 763 mmHg 48%
    17:00 +21°C° 0 mm 3 mps 763 mmHg 56%
    18:00 +19°C° 0 mm 3 mps 764 mmHg 64%
    19:00 +17°C° 0 mm 3 mps 764 mmHg 72%
    20:00 +16°C° 0 mm 3 mps 764 mmHg 77%
    21:00 +15°C° 0 mm 2 mps 764 mmHg 83%
    22:00 +14°C° 0 mm 2 mps 765 mmHg 88%
    23:00 +14°C° 0 mm 2 mps 764 mmHg 90%
    Show more